Flag for Ireland Weather past 2 weeks in Galway, Ireland

Now
55 °F

Fog.


Feels Like: 55 °F
Forecast: 52 / 62 °F
Wind: 3 mph from South

Location: Shannon Airport

Current Time: Sep 23, 2014 at 1:55:32 AM

Latest Report: Sep 23, 2014 at 1:30 AM


Visibility: 3 mi

Pressure: 30.21 "Hg

Humidity: 94%

Dew point: 54 °F

Location of GalwayLocation

Historic Weather in Galway — Graph

°F

Galway temperature yesterday

Maximum temperature yesterday: 68 °F (at 3:00 PM)
Minimum temperature yesterday: 46 °F (at 5:00 AM)
Average temperature yesterday: 57 °F

Past Weeks' High & Low Weather Summary

 TemperatureHumidityPressure
High72 °F (Sep 10, 3:30 PM)100% (Sep 8, 3:30 AM)30.36 "Hg (Sep 8, 3:30 AM)
Low43 °F (Sep 8, 6:00 AM)37% (Sep 9, 4:30 PM)29.77 "Hg (Sep 18, 2:00 PM)
Average58 °F77%30.10 "Hg
* Reported Midnight between Sep 7 and Sep 8 — Sep 23 12:30 AM, Galway, Weather by CustomWeather, © 2014

Note: Actual official high and low records may vary slightly from our data, if they occured in-between our weather recording intervals... More about our weather records

Advertising

Galway weather history for previous 24 hours

 ConditionsComfort  
Time TempWeatherWind HumidityBarometerVisibility
12:30 AM
Sep 23
55 °FFog.3 mph100%30.21 "Hg3 mi
12:00 AM57 °FFog.5 mph94%30.21 "Hg3 mi
11:30 PM
Sep 22
57 °FPassing clouds.3 mph94%30.21 "Hg4 mi
11:00 PM57 °FPassing clouds.3 mph94%30.21 "Hg5 mi
10:30 PM57 °FPassing clouds.5 mph94%30.21 "Hg6 mi
10:00 PM57 °FPassing clouds.No wind94%30.24 "HgN/A
9:30 PM55 °FPassing clouds.No wind94%30.24 "HgN/A
9:00 PM57 °FPassing clouds.No wind88%30.24 "HgN/A
8:30 PM57 °FPassing clouds.3 mph88%30.24 "HgN/A
8:00 PM59 °FPassing clouds.3 mph82%30.24 "HgN/A
7:30 PM61 °FPassing clouds.5 mph72%30.24 "HgN/A
7:00 PM61 °FPassing clouds.8 mph72%30.21 "HgN/A
6:30 PM64 °FPassing clouds.9 mph60%30.24 "HgN/A
6:00 PM66 °FPassing clouds.8 mph56%30.24 "HgN/A
5:30 PM68 °FPassing clouds.9 mph49%30.24 "HgN/A
5:00 PM68 °FPassing clouds.9 mph43%30.24 "HgN/A
4:30 PM68 °FPassing clouds.8 mph46%30.24 "HgN/A
4:00 PM68 °FPassing clouds.7 mph46%30.24 "HgN/A
3:30 PM68 °FPassing clouds.7 mph46%30.27 "HgN/A
3:00 PM68 °FPassing clouds.6 mph46%30.27 "HgN/A
2:30 PM66 °FPassing clouds.5 mph52%30.27 "HgN/A
2:00 PM66 °FScattered clouds.3 mph52%30.30 "HgN/A
1:30 PM64 °FScattered clouds.5 mph60%30.30 "HgN/A
1:00 PM64 °FPassing clouds.5 mph64%30.30 "HgN/A
12:30 PM63 °FScattered clouds.7 mph68%30.30 "HgN/A
12:00 PM59 °FPartly sunny.6 mph82%30.30 "HgN/A
11:30 AM55 °FPartly sunny.6 mph88%30.30 "Hg5 mi
11:00 AM54 °FFog.5 mph94%30.33 "Hg1 mi
10:30 AM52 °FFog.5 mph100%30.33 "Hg1 mi
10:00 AM52 °FFog.3 mph94%30.33 "Hg0 mi
9:30 AM50 °FFog.3 mph100%30.33 "Hg0 mi
9:00 AM50 °FFog.2 mph100%30.33 "Hg0 mi
8:30 AM48 °FFog.2 mph100%30.33 "Hg0 mi
8:00 AM48 °FFog.6 mph100%30.33 "Hg0 mi
7:30 AM48 °FFog.2 mph100%30.33 "Hg0 mi
7:00 AM48 °FFog.1 mph94%30.33 "Hg1 mi
6:30 AM46 °FFog.1 mph100%30.30 "Hg4 mi
6:00 AM46 °FFog.1 mph93%30.30 "Hg4 mi
5:30 AM48 °FPassing clouds.No wind94%30.30 "HgN/A
5:00 AM46 °FPassing clouds.No wind93%30.30 "HgN/A
4:30 AM48 °FPassing clouds.2 mph94%30.30 "HgN/A
4:00 AM52 °FPassing clouds.No wind82%30.33 "HgN/A
3:30 AM52 °FPassing clouds.2 mph88%30.33 "HgN/A
3:00 AM52 °FPartly cloudy.3 mph88%30.33 "HgN/A
2:30 AM52 °FPassing clouds.No wind94%30.33 "HgN/A
2:00 AM52 °FPassing clouds.No wind88%30.33 "HgN/A
1:00 AM52 °FPassing clouds.3 mph88%30.36 "HgN/A
Weather by CustomWeather, © 2014

See weather overviewHow to use our weather pages